#timestamp,LO_Frequency,Hit,StdDev 
1455523215.6,286047026.7,N
1455523235.5,286047026.0,N
1455523255.3,286047026.3,N
1455523275.2,286047028.0,N
1455523295.9,286047008.6,N
1455523315.7,286047010.2,N
1455523335.6,286047006.9,N
1455523355.4,286047007.2,N
1455523375.2,286047008.2,N
1455523395.1,286047007.8,N
1455523396.0,286047007.8,N
1455523415.8,286047001.3,N
1455523435.7,286047008.0,N
1455523455.5,286047008.3,N
1455523475.3,286047008.2,N
1455523495.2,286047006.7,N
1455523515.0,286047008.5,N
1455523515.9,286047008.5,N
1455523535.7,286047006.2,N
1455523555.6,286047010.4,N
1455523575.4,286047010.6,N
1455523595.3,286047010.2,N
1455523615.1,286047007.8,N
1455523616.0,286047007.8,N
1455523635.8,286047007.8,N
1455523655.7,286047007.9,N
1455523675.5,286047010.7,N
1455523695.3,286047010.3,N
1455523715.2,286047010.1,N
1455523735.0,286047012.0,N
1455523735.9,286047012.0,N
1455523755.8,286047009.7,N
1455523775.6,286047010.7,N
1455523795.4,286047011.1,N
1455523815.3,286047007.9,Y
1455523835.1,286047002.7,P
1455523855.8,286047001.9,N
1455523875.7,286047000.2,N
1455523895.5,286047002.3,N
1455523915.4,286047002.1,N
1455523935.2,286047002.4,N
1455523955.0,286047001.6,N
1455523955.9,286047001.6,N
1455523975.8,286047003.7,N
1455523995.6,286046999.7,N
1455524015.4,286047003.7,N
1455524035.3,286047003.8,N
1455524055.1,286047004.2,N
1455524075.8,286047003.1,N
1455524095.7,286047003.0,N
1455524115.5,286047004.8,N
1455524135.4,286047003.5,N
1455524155.2,286047003.0,N
1455524175.0,286047005.3,N
1455524175.9,286047005.3,N
1455524195.8,286047005.6,N
1455524215.6,286047003.4,N
1455524235.4,286047003.4,N
1455524255.3,286047004.1,N
1455524275.1,286047004.0,N
1455524295.9,286047003.8,N
1455524315.7,286047003.3,N
1455524335.5,286047005.4,Y
1455524355.4,286047003.6,P
1455524375.2,286047002.0,P
1455524395.0,286047003.4,P
1455524396.0,286047003.4,Y
1455524415.8,286046997.2,P
1455524435.6,286046996.7,N
1455524455.5,286046995.4,N
1455524475.3,286047000.7,N
1455524495.1,286047000.0,N
1455524515.9,286046998.5,N
1455524535.7,286046998.5,N
1455524555.5,286046998.5,N
1455524575.4,286047000.8,N
1455524595.2,286047002.6,N
1455524615.1,286047000.7,N
1455524616.0,286047000.7,N
1455524635.8,286047002.0,N
1455524655.6,286047003.5,N
1455524675.5,286047003.8,N
1455524695.3,286046995.7,N
1455524715.2,286047003.7,N
1455524735.9,286047003.1,N
1455524755.7,286047005.6,N
1455524775.6,286047003.9,N
1455524795.4,286047003.6,N
1455524815.2,286047002.6,N
1455524835.1,286047005.8,N
1455524836.0,286047005.8,N
1455524855.8,286047003.7,N
1455524875.7,286047003.3,N
1455524895.5,286047003.4,N
1455524915.3,286047003.5,N
1455524935.2,286047005.9,N
1455524955.9,286047003.3,N
1455524975.7,286047005.3,N
1455524995.6,286047006.0,N
1455525015.4,286047004.3,N
1455525035.3,286047004.1,N
1455525055.1,286047006.0,N
1455525056.0,286047006.0,N
1455525075.8,286047007.1,N
1455525095.7,286047003.0,N
1455525115.5,286047003.3,N
1455525135.3,286047011.9,Y
1455525155.2,286047001.9,P
1455525175.0,286047000.1,N
1455525175.9,286047000.1,N
1455525195.8,286046998.6,N
1455525215.6,286046999.3,N
1455525235.4,286047001.0,N
1455525255.3,286046999.9,N
1455525275.1,286047000.1,N
1455525295.9,286046998.5,N
1455525315.7,286047001.0,N
1455525335.5,286047001.5,N
1455525355.4,286047002.2,N
1455525375.2,286047000.4,N
1455525395.0,286047000.4,N
1455525395.9,286047000.4,N
1455525415.8,286047000.7,N
1455525435.6,286047000.1,N
1455525455.5,286047001.7,N
1455525475.3,286047005.2,Y
1455525495.1,286046998.6,P
1455525515.9,286047001.5,N
1455525535.7,286047002.4,N
1455525555.6,286047003.8,N
1455525575.4,286047001.3,N
1455525595.2,286047001.3,N
1455525615.1,286047001.7,N
1455525616.0,286047001.7,N
1455525635.8,286047001.5,N
1455525655.7,286047004.0,Y
1455525675.5,286047001.9,P
1455525695.3,286047001.8,P
1455525715.2,286047002.0,P
1455525735.0,286047002.1,Y
1455525735.9,286047002.1,P
1455525755.7,286047001.0,P
1455525775.6,286046995.9,P
1455525795.4,286046997.9,N
1455525815.3,286046996.6,N
1455525835.1,286046997.9,N
1455525855.8,286046996.9,N
1455525875.7,286046995.7,N
1455525895.5,286046997.0,N
1455525915.4,286046997.0,N
1455525935.2,286046998.3,N
1455525955.0,286047001.2,N
1455525955.9,286047001.2,N
1455525975.8,286046998.8,N
1455525995.6,286047000.2,N
1455526015.4,286047001.2,N
1455526035.3,286047000.3,N
1455526055.1,286047000.1,N
1455526075.9,286047000.6,N
1455526095.7,286047001.7,N
1455526115.5,286047000.1,N
1455526135.4,286047002.6,N
1455526155.2,286047001.5,N
1455526175.0,286047002.8,N
1455526175.9,286047002.8,N
1455526195.8,286047000.0,N
1455526215.6,286047002.4,N
1455526235.5,286047006.0,N
1455526255.3,286047003.2,N
1455526275.1,286047006.0,N
1455526295.9,286047003.1,N
1455526315.7,286047003.7,N
1455526335.6,286047002.1,N
1455526355.4,286047000.3,N
1455526375.2,286046999.9,N
1455526395.1,286047002.6,N
1455526396.0,286047002.6,N
1455526415.8,286047002.0,N
1455526435.6,286047001.7,N
1455526455.5,286047001.3,N
1455526475.3,286047003.4,N
1455526495.2,286047002.0,N
1455526515.9,286047001.8,N
1455526535.7,286047007.3,Y
1455526555.6,286047003.6,P
1455526575.4,286047003.2,P
1455526595.3,286047002.5,P
1455526615.1,286047000.5,N
1455526616.0,286047000.5,N
1455526635.8,286047002.1,N
1455526655.7,286047002.3,N
1455526675.5,286047003.7,Y
1455526695.3,286047000.6,P
1455526715.2,286047000.3,N
1455526735.0,286046998.5,N
1455526735.9,286046998.5,N
1455526755.8,286047000.0,N
1455526775.6,286047002.5,N
1455526795.4,286047000.3,N
